Time,TemperatureF,DewpointF,PressureIn,WindDirection,WindDirectionDegrees,WindSpeedMPH,WindSpeedGustMPH,Humidity,HourlyPrecipIn,Conditions,Clouds,dailyrainin,SolarRadiationWatts/m^2,SoftwareType,DateUTC
2013-09-12 00:01:00,75.0,70.5,29.94,WNW,282,0.0,0.0,86,0.00,,---,0.00,0.00,VWS V14.01,2013-09-12 04:01:00,
2013-09-12 00:02:00,75.0,70.5,29.94,WNW,282,0.0,1.0,86,0.00,,---,0.00,0.00,VWS V14.01,2013-09-12 04:02:00,
2013-09-12 00:03:00,75.0,70.5,29.94,WNW,282,0.0,1.0,86,0.00,,---,0.00,0.00,VWS V14.01,2013-09-12 04:03:00,
2013-09-12 00:05:00,75.0,70.5,29.94,WNW,282,0.0,1.0,86,0.00,,---,0.00,0.00,VWS V14.01,2013-09-12 04:05:00,
2013-09-12 00:11:00,75.0,70.5,29.93,WNW,282,0.0,1.0,86,0.00,,---,0.00,0.00,VWS V14.01,2013-09-12 04:11:00,
2013-09-12 00:14:00,74.9,70.4,29.93,WNW,282,0.0,1.0,86,0.00,,---,0.00,0.00,VWS V14.01,2013-09-12 04:14:00,
2013-09-12 00:19:00,74.8,70.3,29.93,WNW,282,0.0,1.0,86,0.00,,---,0.00,0.00,VWS V14.01,2013-09-12 04:19:00,
2013-09-12 00:24:00,74.7,70.6,29.93,WNW,282,0.0,1.0,87,0.00,,---,0.00,0.00,VWS V14.01,2013-09-12 04:24:00,
2013-09-12 00:29:00,74.6,70.5,29.93,WNW,282,0.0,1.0,87,0.00,,---,0.00,0.00,VWS V14.01,2013-09-12 04:29:00,
2013-09-12 00:34:00,74.7,70.6,29.93,WNW,282,0.0,0.0,87,0.00,,---,0.00,0.00,VWS V14.01,2013-09-12 04:34:00,
2013-09-12 00:39:00,74.7,70.6,29.92,WNW,282,0.0,1.0,87,0.00,,---,0.00,0.00,VWS V14.01,2013-09-12 04:39:00,
2013-09-12 00:44:00,74.7,70.6,29.92,WNW,282,0.0,1.0,87,0.00,,---,0.00,0.00,VWS V14.01,2013-09-12 04:44:00,
2013-09-12 00:49:00,74.5,70.4,29.92,WNW,282,0.0,1.0,87,0.00,,---,0.00,0.00,VWS V14.01,2013-09-12 04:49:00,
2013-09-12 00:54:00,74.3,70.2,29.92,WNW,282,1.0,1.0,87,0.00,,---,0.00,0.00,VWS V14.01,2013-09-12 04:54:00,
2013-09-12 00:59:00,74.1,70.3,29.91,WNW,282,1.0,1.0,88,0.00,,---,0.00,0.00,VWS V14.01,2013-09-12 04:59:00,
2013-09-12 01:04:00,73.8,70.0,29.91,WNW,282,0.0,1.0,88,0.00,,---,0.00,0.00,VWS V14.01,2013-09-12 05:04:00,
2013-09-12 01:09:00,73.6,70.2,29.91,WNW,282,0.0,1.0,89,0.00,,---,0.00,0.00,VWS V14.01,2013-09-12 05:09:00,
2013-09-12 01:15:00,73.5,70.1,29.91,WNW,282,0.0,1.0,89,0.00,,---,0.00,0.00,VWS V14.01,2013-09-12 05:15:00,
2013-09-12 01:20:00,73.4,70.0,29.91,WNW,282,0.0,1.0,89,0.00,,---,0.00,0.00,VWS V14.01,2013-09-12 05:20:00,
2013-09-12 01:25:00,73.4,70.0,29.91,WNW,282,0.0,1.0,89,0.00,,---,0.00,0.00,VWS V14.01,2013-09-12 05:25:00,
2013-09-12 01:30:00,73.5,70.1,29.90,WNW,282,0.0,0.0,89,0.00,,---,0.00,0.00,VWS V14.01,2013-09-12 05:30:00,
2013-09-12 01:35:00,73.5,70.1,29.90,WNW,282,0.0,1.0,89,0.00,,---,0.00,0.00,VWS V14.01,2013-09-12 05:35:00,
2013-09-12 01:40:00,73.6,70.2,29.90,West,266,0.0,1.0,89,0.00,,---,0.00,0.00,VWS V14.01,2013-09-12 05:40:00,
2013-09-12 01:45:00,73.6,70.2,29.90,West,266,1.0,1.0,89,0.00,,---,0.00,0.00,VWS V14.01,2013-09-12 05:45:00,
2013-09-12 01:50:00,73.5,70.1,29.90,West,266,0.0,1.0,89,0.00,,---,0.00,0.00,VWS V14.01,2013-09-12 05:50:00,
2013-09-12 01:55:00,73.5,70.1,29.90,West,266,1.0,1.0,89,0.00,,---,0.00,0.00,VWS V14.01,2013-09-12 05:55:00,
2013-09-12 02:00:00,73.5,70.4,29.90,West,265,0.0,0.0,90,0.00,,---,0.00,0.00,VWS V14.01,2013-09-12 06:00:00,
2013-09-12 02:05:00,73.4,70.3,29.90,SSE,167,0.0,3.0,90,0.00,,---,0.00,0.00,VWS V14.01,2013-09-12 06:05:00,
2013-09-12 02:10:00,73.4,70.3,29.90,SSE,167,1.0,3.0,90,0.00,,---,0.00,0.00,VWS V14.01,2013-09-12 06:10:00,
2013-09-12 02:15:00,73.4,70.3,29.90,SSE,153,0.0,3.0,90,0.00,,---,0.00,0.00,VWS V14.01,2013-09-12 06:15:00,
2013-09-12 02:20:00,73.3,70.2,29.90,SSE,153,0.0,3.0,90,0.00,,---,0.00,0.00,VWS V14.01,2013-09-12 06:20:00,
2013-09-12 02:25:00,73.2,70.1,29.90,SE,142,0.0,3.0,90,0.00,,---,0.00,0.00,VWS V14.01,2013-09-12 06:25:00,
2013-09-12 02:30:00,73.1,70.0,29.89,SE,142,0.0,1.0,90,0.00,,---,0.00,0.00,VWS V14.01,2013-09-12 06:30:00,
2013-09-12 02:35:00,73.1,70.0,29.89,SE,142,0.0,1.0,90,0.00,,---,0.00,0.00,VWS V14.01,2013-09-12 06:35:00,
2013-09-12 02:41:00,73.1,70.0,29.89,SE,142,1.0,1.0,90,0.00,,---,0.00,0.00,VWS V14.01,2013-09-12 06:41:00,
2013-09-12 02:46:00,73.0,69.9,29.89,SE,136,0.0,2.0,90,0.00,,---,0.00,0.00,VWS V14.01,2013-09-12 06:46:00,
2013-09-12 02:51:00,73.0,70.2,29.89,SE,136,0.0,2.0,91,0.00,,---,0.00,0.00,VWS V14.01,2013-09-12 06:51:00,
2013-09-12 02:56:00,72.9,70.1,29.89,SE,130,0.0,2.0,91,0.00,,---,0.00,0.00,VWS V14.01,2013-09-12 06:56:00,
2013-09-12 03:01:00,72.9,70.1,29.89,SE,130,0.0,1.0,91,0.00,,---,0.00,0.00,VWS V14.01,2013-09-12 07:01:00,
2013-09-12 03:06:00,72.8,70.0,29.89,SE,130,0.0,1.0,91,0.00,,---,0.00,0.00,VWS V14.01,2013-09-12 07:06:00,
2013-09-12 03:11:00,72.8,70.0,29.89,SE,130,0.0,1.0,91,0.00,,---,0.00,0.00,VWS V14.01,2013-09-12 07:11:00,
2013-09-12 03:16:00,72.7,69.9,29.88,SE,130,0.0,1.0,91,0.00,,---,0.00,0.00,VWS V14.01,2013-09-12 07:16:00,
2013-09-12 03:21:00,72.8,70.0,29.89,SE,130,0.0,1.0,91,0.00,,---,0.00,0.00,VWS V14.01,2013-09-12 07:21:00,
2013-09-12 03:26:00,72.7,69.9,29.89,ESE,107,0.0,3.0,91,0.00,,---,0.00,0.00,VWS V14.01,2013-09-12 07:26:00,
2013-09-12 03:31:00,72.7,69.9,29.89,ESE,107,1.0,1.0,91,0.00,,---,0.00,0.00,VWS V14.01,2013-09-12 07:31:00,
2013-09-12 03:36:00,72.6,69.8,29.89,SE,142,0.0,1.0,91,0.00,,---,0.00,0.00,VWS V14.01,2013-09-12 07:36:00,
2013-09-12 03:41:00,72.6,69.8,29.89,East,96,0.0,3.0,91,0.00,,---,0.00,0.00,VWS V14.01,2013-09-12 07:41:00,
2013-09-12 03:46:00,72.6,69.8,29.88,SE,132,0.0,4.0,91,0.00,,---,0.00,0.00,VWS V14.01,2013-09-12 07:46:00,
2013-09-12 03:51:00,72.6,69.8,29.88,SSW,194,0.0,4.0,91,0.00,,---,0.00,0.00,VWS V14.01,2013-09-12 07:51:00,
2013-09-12 03:56:00,72.5,69.7,29.88,ESE,122,0.0,4.0,91,0.00,,---,0.00,0.00,VWS V14.01,2013-09-12 07:56:00,
2013-09-12 04:01:00,72.6,70.2,29.88,ESE,109,0.0,2.0,92,0.00,,---,0.00,0.00,VWS V14.01,2013-09-12 08:01:00,
2013-09-12 04:06:00,72.5,70.1,29.88,ESE,108,0.0,2.0,92,0.00,,---,0.00,0.00,VWS V14.01,2013-09-12 08:06:00,
2013-09-12 04:11:00,72.5,70.1,29.88,ESE,102,1.0,2.0,92,0.00,,---,0.00,0.00,VWS V14.01,2013-09-12 08:11:00,
2013-09-12 04:16:00,72.5,70.1,29.87,ESE,116,0.0,3.0,92,0.00,,---,0.00,0.00,VWS V14.01,2013-09-12 08:16:00,
2013-09-12 04:21:00,72.4,69.9,29.87,ESE,116,0.0,3.0,92,0.00,,---,0.00,0.00,VWS V14.01,2013-09-12 08:21:00,
2013-09-12 04:27:00,72.4,69.9,29.88,ESE,115,0.0,3.0,92,0.00,,---,0.00,0.00,VWS V14.01,2013-09-12 08:27:00,
2013-09-12 04:32:00,72.3,69.8,29.88,ESE,115,1.0,1.0,92,0.00,,---,0.00,0.00,VWS V14.01,2013-09-12 08:32:00,
2013-09-12 04:37:00,72.2,69.8,29.87,ESE,115,0.0,2.0,92,0.00,,---,0.00,0.00,VWS V14.01,2013-09-12 08:37:00,
2013-09-12 04:42:00,72.2,69.8,29.88,ESE,115,0.0,2.0,92,0.00,,---,0.00,0.00,VWS V14.01,2013-09-12 08:42:00,
2013-09-12 04:47:00,72.1,69.7,29.88,ESE,115,0.0,2.0,92,0.00,,---,0.00,0.00,VWS V14.01,2013-09-12 08:47:00,
2013-09-12 04:52:00,72.0,69.6,29.88,ESE,115,0.0,2.0,92,0.00,,---,0.00,0.00,VWS V14.01,2013-09-12 08:52:00,
2013-09-12 04:57:00,72.0,69.6,29.87,ESE,116,0.0,2.0,92,0.00,,---,0.00,0.00,VWS V14.01,2013-09-12 08:57:00,
2013-09-12 05:02:00,72.0,69.6,29.87,ESE,116,0.0,0.0,92,0.00,,---,0.00,0.00,VWS V14.01,2013-09-12 09:02:00,
2013-09-12 05:07:00,71.9,69.4,29.87,ESE,115,0.0,1.0,92,0.00,,---,0.00,0.00,VWS V14.01,2013-09-12 09:07:00,
2013-09-12 05:12:00,71.8,69.3,29.87,ESE,115,0.0,1.0,92,0.00,,---,0.00,0.00,VWS V14.01,2013-09-12 09:12:00,
2013-09-12 05:17:00,71.7,69.3,29.87,ESE,116,0.0,1.0,92,0.00,,---,0.00,0.00,VWS V14.01,2013-09-12 09:17:00,
2013-09-12 05:22:00,71.6,69.5,29.87,ESE,115,0.0,1.0,93,0.00,,---,0.00,0.00,VWS V14.01,2013-09-12 09:22:00,
2013-09-12 05:27:00,71.5,69.4,29.87,ESE,115,0.0,1.0,93,0.00,,---,0.00,0.00,VWS V14.01,2013-09-12 09:27:00,
2013-09-12 05:32:00,71.5,69.4,29.87,ESE,116,0.0,0.0,93,0.00,,---,0.00,0.00,VWS V14.01,2013-09-12 09:32:00,
2013-09-12 05:37:00,71.4,69.3,29.87,ESE,115,0.0,1.0,93,0.00,,---,0.00,0.00,VWS V14.01,2013-09-12 09:37:00,
2013-09-12 05:42:00,71.3,69.2,29.87,ESE,116,0.0,1.0,93,0.00,,---,0.00,0.00,VWS V14.01,2013-09-12 09:42:00,
2013-09-12 05:47:00,71.3,69.2,29.87,ESE,115,0.0,1.0,93,0.00,,---,0.00,0.00,VWS V14.01,2013-09-12 09:47:00,
2013-09-12 05:52:00,71.3,69.2,29.87,ESE,115,0.0,1.0,93,0.00,,---,0.00,0.00,VWS V14.01,2013-09-12 09:52:00,
2013-09-12 05:57:00,71.2,69.1,29.87,ESE,115,0.0,1.0,93,0.00,,---,0.00,0.00,VWS V14.01,2013-09-12 09:57:00,
2013-09-12 06:02:00,71.1,69.0,29.87,ESE,116,0.0,0.0,93,0.00,,---,0.00,0.00,VWS V14.01,2013-09-12 10:02:00,
2013-09-12 06:07:00,71.1,69.3,29.87,ESE,115,0.0,1.0,94,0.00,,---,0.00,0.00,VWS V14.01,2013-09-12 10:07:00,
2013-09-12 06:13:00,71.0,69.2,29.87,ESE,116,0.0,1.0,94,0.00,,---,0.00,0.00,VWS V14.01,2013-09-12 10:13:00,
2013-09-12 06:18:00,71.0,69.2,29.87,ESE,115,0.0,1.0,94,0.00,,---,0.00,0.00,VWS V14.01,2013-09-12 10:18:00,
2013-09-12 06:23:00,71.0,69.2,29.87,ESE,115,3.0,3.0,94,0.00,,---,0.00,0.00,VWS V14.01,2013-09-12 10:23:00,
2013-09-12 06:28:00,70.9,69.1,29.87,ESE,115,0.0,3.0,94,0.00,,---,0.00,0.00,VWS V14.01,2013-09-12 10:28:00,
2013-09-12 06:33:00,70.8,69.0,29.87,ESE,115,0.0,1.0,94,0.00,,---,0.00,0.00,VWS V14.01,2013-09-12 10:33:00,
2013-09-12 06:38:00,70.8,69.0,29.87,SSE,147,0.0,2.0,94,0.00,,---,0.00,0.00,VWS V14.01,2013-09-12 10:38:00,
2013-09-12 06:43:00,70.8,69.0,29.87,SSE,147,0.0,2.0,94,0.00,,---,0.00,0.00,VWS V14.01,2013-09-12 10:43:00,
2013-09-12 06:48:00,70.8,69.3,29.87,SE,140,0.0,3.0,95,0.00,,---,0.00,7.00,VWS V14.01,2013-09-12 10:48:00,
2013-09-12 06:53:00,70.9,69.4,29.87,East,101,0.0,3.0,95,0.00,,---,0.00,11.00,VWS V14.01,2013-09-12 10:53:00,
2013-09-12 06:58:00,70.9,69.4,29.87,SSE,161,0.0,3.0,95,0.00,,---,0.00,16.00,VWS V14.01,2013-09-12 10:58:00,
2013-09-12 07:03:00,71.0,69.5,29.87,SE,138,0.0,0.0,95,0.00,,---,0.00,19.00,VWS V14.01,2013-09-12 11:03:00,
2013-09-12 07:08:00,71.0,69.5,29.87,SE,138,0.0,1.0,95,0.00,,---,0.00,25.00,VWS V14.01,2013-09-12 11:08:00,
2013-09-12 07:13:00,71.0,69.5,29.87,SE,138,0.0,2.0,95,0.00,,---,0.00,28.00,VWS V14.01,2013-09-12 11:13:00,
2013-09-12 07:18:00,71.1,69.6,29.87,SE,138,0.0,2.0,95,0.00,,---,0.00,37.00,VWS V14.01,2013-09-12 11:18:00,
2013-09-12 07:23:00,71.1,69.6,29.87,SE,138,0.0,2.0,95,0.00,,---,0.00,40.00,VWS V14.01,2013-09-12 11:23:00,
2013-09-12 07:28:00,71.2,69.7,29.87,SE,138,0.0,2.0,95,0.00,,---,0.00,44.00,VWS V14.01,2013-09-12 11:28:00,
2013-09-12 07:33:00,71.2,69.7,29.87,SE,138,0.0,0.0,95,0.00,,---,0.00,46.00,VWS V14.01,2013-09-12 11:33:00,
2013-09-12 07:38:00,71.3,69.8,29.87,SE,138,2.0,2.0,95,0.00,,---,0.00,47.00,VWS V14.01,2013-09-12 11:38:00,
2013-09-12 07:43:00,71.4,69.9,29.87,SE,138,0.0,2.0,95,0.00,,---,0.00,49.00,VWS V14.01,2013-09-12 11:43:00,
2013-09-12 07:48:00,71.4,69.9,29.87,SE,124,0.0,2.0,95,0.00,,---,0.00,53.00,VWS V14.01,2013-09-12 11:48:00,
2013-09-12 07:53:00,71.5,70.0,29.87,ESE,118,0.0,2.0,95,0.00,,---,0.00,62.00,VWS V14.01,2013-09-12 11:53:00,
2013-09-12 07:59:00,71.7,70.2,29.87,ESE,123,0.0,3.0,95,0.00,,---,0.00,65.00,VWS V14.01,2013-09-12 11:59:00,
2013-09-12 08:04:00,71.8,70.3,29.86,SSE,150,0.0,3.0,95,0.00,,---,0.00,60.00,VWS V14.01,2013-09-12 12:04:00,
2013-09-12 08:09:00,71.9,70.4,29.86,SSE,149,0.0,3.0,95,0.00,,---,0.00,56.00,VWS V14.01,2013-09-12 12:09:00,
2013-09-12 08:14:00,72.0,70.5,29.86,SSE,165,1.0,3.0,95,0.00,,---,0.00,81.00,VWS V14.01,2013-09-12 12:14:00,
2013-09-12 08:19:00,72.1,70.6,29.87,South,175,0.0,3.0,95,0.00,,---,0.00,121.00,VWS V14.01,2013-09-12 12:19:00,
2013-09-12 08:24:00,72.3,70.8,29.87,SSE,148,0.0,3.0,95,0.00,,---,0.00,125.00,VWS V14.01,2013-09-12 12:24:00,
2013-09-12 08:29:00,72.5,71.0,29.86,SE,136,0.0,3.0,95,0.00,,---,0.00,125.00,VWS V14.01,2013-09-12 12:29:00,
2013-09-12 08:34:00,72.8,71.0,29.86,South,177,0.0,4.0,94,0.00,,---,0.00,118.00,VWS V14.01,2013-09-12 12:34:00,
2013-09-12 08:39:00,73.1,71.3,29.86,SE,140,0.0,4.0,94,0.00,,---,0.00,128.00,VWS V14.01,2013-09-12 12:39:00,
2013-09-12 08:44:00,73.4,71.6,29.86,South,188,0.0,4.0,94,0.00,,---,0.00,141.00,VWS V14.01,2013-09-12 12:44:00,
2013-09-12 08:49:00,73.8,71.7,29.85,South,171,0.0,4.0,93,0.00,,---,0.00,158.00,VWS V14.01,2013-09-12 12:49:00,
2013-09-12 08:54:00,74.2,72.1,29.85,ESE,118,1.0,4.0,93,0.00,,---,0.00,156.00,VWS V14.01,2013-09-12 12:54:00,
2013-09-12 08:59:00,74.5,72.0,29.85,SE,133,1.0,4.0,92,0.00,,---,0.00,174.00,VWS V14.01,2013-09-12 12:59:00,
2013-09-12 09:04:00,74.8,72.0,29.85,SSE,160,0.0,5.0,91,0.00,,---,0.00,199.00,VWS V14.01,2013-09-12 13:04:00,
2013-09-12 09:09:00,75.0,72.2,29.85,South,178,0.0,5.0,91,0.00,,---,0.00,213.00,VWS V14.01,2013-09-12 13:09:00,
2013-09-12 09:14:00,75.2,72.1,29.85,South,177,0.0,5.0,90,0.00,,---,0.00,225.00,VWS V14.01,2013-09-12 13:14:00,
2013-09-12 09:19:00,75.6,72.5,29.84,SSE,165,1.0,5.0,90,0.00,,---,0.00,214.00,VWS V14.01,2013-09-12 13:19:00,
2013-09-12 09:24:00,76.0,72.5,29.84,South,170,1.0,5.0,89,0.00,,---,0.00,301.00,VWS V14.01,2013-09-12 13:24:00,
2013-09-12 09:29:00,76.4,72.9,29.84,South,174,3.0,5.0,89,0.00,,---,0.00,376.00,VWS V14.01,2013-09-12 13:29:00,
2013-09-12 09:35:00,76.7,72.9,29.84,SE,143,4.0,4.0,88,0.00,,---,0.00,239.00,VWS V14.01,2013-09-12 13:35:00,
2013-09-12 09:40:00,76.7,72.5,29.84,SSE,157,0.0,4.0,87,0.00,,---,0.00,199.00,VWS V14.01,2013-09-12 13:40:00,
2013-09-12 09:45:00,76.5,72.3,29.84,South,190,1.0,6.0,87,0.00,,---,0.00,241.00,VWS V14.01,2013-09-12 13:45:00,
2013-09-12 09:50:00,76.7,72.9,29.84,SE,135,1.0,6.0,88,0.00,,---,0.00,455.00,VWS V14.01,2013-09-12 13:50:00,
2013-09-12 09:55:00,77.0,73.2,29.84,ESE,120,0.0,6.0,88,0.00,,---,0.00,411.00,VWS V14.01,2013-09-12 13:55:00,
2013-09-12 10:00:00,77.3,72.8,29.84,South,176,2.0,2.0,86,0.00,,---,0.00,322.00,VWS V14.01,2013-09-12 14:00:00,
2013-09-12 10:05:00,77.3,72.8,29.84,SSW,194,6.0,6.0,86,0.00,,---,0.00,274.00,VWS V14.01,2013-09-12 14:05:00,
2013-09-12 10:10:00,76.7,72.2,29.84,SW,217,0.0,6.0,86,0.00,,---,0.00,153.00,VWS V14.01,2013-09-12 14:10:00,
2013-09-12 10:15:00,76.4,72.2,29.84,SE,136,3.0,6.0,87,0.00,,---,0.00,165.00,VWS V14.01,2013-09-12 14:15:00,
2013-09-12 10:20:00,76.4,72.2,29.83,SSE,156,0.0,6.0,87,0.00,,---,0.00,315.00,VWS V14.01,2013-09-12 14:20:00,
2013-09-12 10:25:00,76.5,72.3,29.84,SSE,152,0.0,6.0,87,0.00,,---,0.00,207.00,VWS V14.01,2013-09-12 14:25:00,
2013-09-12 10:30:00,76.5,72.3,29.84,SSW,195,0.0,1.0,87,0.00,,---,0.00,100.00,VWS V14.01,2013-09-12 14:30:00,
2013-09-12 10:35:00,76.2,72.1,29.84,SSE,160,1.0,3.0,87,0.00,,---,0.00,44.00,VWS V14.01,2013-09-12 14:35:00,
2013-09-12 10:40:00,76.0,72.2,29.84,SSE,159,1.0,3.0,88,0.00,,---,0.00,28.00,VWS V14.01,2013-09-12 14:40:00,
2013-09-12 10:45:00,75.7,71.9,29.83,South,175,3.0,3.0,88,0.00,,---,0.00,42.00,VWS V14.01,2013-09-12 14:45:00,
2013-09-12 10:50:00,75.5,72.0,29.83,SSW,197,0.0,4.0,89,0.00,,---,0.00,113.00,VWS V14.01,2013-09-12 14:50:00,
2013-09-12 10:55:00,75.6,72.5,29.83,SSW,197,0.0,4.0,90,0.00,,---,0.00,327.00,VWS V14.01,2013-09-12 14:55:00,
2013-09-12 11:00:00,76.0,72.9,29.83,SSW,197,0.0,0.0,90,0.00,,---,0.00,476.00,VWS V14.01,2013-09-12 15:00:00,
2013-09-12 11:05:00,76.8,73.7,29.83,South,177,0.0,2.0,90,0.00,,---,0.00,480.00,VWS V14.01,2013-09-12 15:05:00,
2013-09-12 11:10:00,77.2,73.0,29.82,SE,129,0.0,4.0,87,0.00,,---,0.00,156.00,VWS V14.01,2013-09-12 15:10:00,
2013-09-12 11:15:00,77.2,72.7,29.82,South,173,0.0,5.0,86,0.00,,---,0.00,202.00,VWS V14.01,2013-09-12 15:15:00,
2013-09-12 11:21:00,77.7,73.5,29.82,East,100,0.0,5.0,87,0.00,,---,0.00,659.00,VWS V14.01,2013-09-12 15:21:00,
2013-09-12 11:26:00,78.5,74.0,29.82,SSE,155,1.0,5.0,86,0.00,,---,0.00,657.00,VWS V14.01,2013-09-12 15:26:00,
2013-09-12 11:31:00,79.4,74.8,29.82,ESE,119,1.0,2.0,86,0.00,,---,0.00,707.00,VWS V14.01,2013-09-12 15:31:00,
2013-09-12 11:36:00,80.0,74.4,29.82,SW,215,2.0,6.0,83,0.00,,---,0.00,745.00,VWS V14.01,2013-09-12 15:36:00,
2013-09-12 11:41:00,80.3,75.0,29.81,SSE,150,0.0,6.0,84,0.00,,---,0.00,721.00,VWS V14.01,2013-09-12 15:41:00,
2013-09-12 11:46:00,80.8,74.8,29.81,ESE,116,3.0,6.0,82,0.00,,---,0.00,605.00,VWS V14.01,2013-09-12 15:46:00,
2013-09-12 11:51:00,81.1,75.1,29.81,East,91,0.0,6.0,82,0.00,,---,0.00,714.00,VWS V14.01,2013-09-12 15:51:00,
2013-09-12 11:56:00,81.4,75.4,29.81,East,92,1.0,6.0,82,0.00,,---,0.00,766.00,VWS V14.01,2013-09-12 15:56:00,
2013-09-12 12:01:00,81.6,74.8,29.80,SSE,164,4.0,6.0,80,0.00,,---,0.00,527.00,VWS V14.01,2013-09-12 16:01:00,
2013-09-12 12:06:00,81.5,74.7,29.80,ESE,123,0.0,6.0,80,0.00,,---,0.00,413.00,VWS V14.01,2013-09-12 16:06:00,
2013-09-12 12:11:00,82.0,75.6,29.80,SSW,194,0.0,6.0,81,0.00,,---,0.00,768.00,VWS V14.01,2013-09-12 16:11:00,
2013-09-12 12:16:00,82.1,74.9,29.80,SW,221,0.0,6.0,79,0.00,,---,0.00,438.00,VWS V14.01,2013-09-12 16:16:00,
2013-09-12 12:21:00,82.0,74.8,29.80,South,175,0.0,7.0,79,0.00,,---,0.00,664.00,VWS V14.01,2013-09-12 16:21:00,
2013-09-12 12:26:00,82.3,75.1,29.80,SSE,149,1.0,7.0,79,0.00,,---,0.00,436.00,VWS V14.01,2013-09-12 16:26:00,
2013-09-12 12:31:00,82.5,74.9,29.79,SSE,158,0.0,0.0,78,0.00,,---,0.00,696.00,VWS V14.01,2013-09-12 16:31:00,
2013-09-12 12:36:00,82.8,74.5,29.79,SE,145,2.0,5.0,76,0.00,,---,0.00,230.00,VWS V14.01,2013-09-12 16:36:00,
2013-09-12 12:41:00,82.3,74.0,29.79,SSW,194,0.0,5.0,76,0.00,,---,0.00,255.00,VWS V14.01,2013-09-12 16:41:00,
2013-09-12 12:46:00,81.8,74.3,29.79,SSE,148,0.0,7.0,78,0.00,,---,0.00,301.00,VWS V14.01,2013-09-12 16:46:00,
2013-09-12 12:51:00,81.4,74.3,29.79,SSW,213,0.0,7.0,79,0.00,,---,0.00,353.00,VWS V14.01,2013-09-12 16:51:00,
2013-09-12 12:56:00,81.1,74.3,29.78,SW,222,3.0,7.0,80,0.00,,---,0.00,369.00,VWS V14.01,2013-09-12 16:56:00,
2013-09-12 13:01:00,81.1,74.7,29.78,SSW,209,0.0,2.0,81,0.00,,---,0.00,401.00,VWS V14.01,2013-09-12 17:01:00,
2013-09-12 13:07:00,81.3,74.5,29.78,SSW,195,0.0,5.0,80,0.00,,---,0.00,515.00,VWS V14.01,2013-09-12 17:07:00,
2013-09-12 13:12:00,81.4,74.3,29.78,SW,227,5.0,5.0,79,0.00,,---,0.00,413.00,VWS V14.01,2013-09-12 17:12:00,
2013-09-12 13:17:00,81.4,74.3,29.78,SSE,152,1.0,6.0,79,0.00,,---,0.00,415.00,VWS V14.01,2013-09-12 17:17:00,
2013-09-12 13:22:00,81.6,74.8,29.78,SE,146,0.0,6.0,80,0.00,,---,0.00,485.00,VWS V14.01,2013-09-12 17:22:00,
2013-09-12 13:27:00,82.0,74.8,29.77,SE,130,0.0,6.0,79,0.00,,---,0.00,464.00,VWS V14.01,2013-09-12 17:27:00,
2013-09-12 13:32:00,82.1,74.2,29.77,East,91,0.0,5.0,77,0.00,,---,0.00,504.00,VWS V14.01,2013-09-12 17:32:00,
2013-09-12 13:37:00,82.3,74.0,29.76,South,173,6.0,6.0,76,0.00,,---,0.00,504.00,VWS V14.01,2013-09-12 17:37:00,
2013-09-12 13:42:00,82.2,74.3,29.76,WSW,257,3.0,11.0,77,0.00,,---,0.00,403.00,VWS V14.01,2013-09-12 17:42:00,
2013-09-12 13:47:00,82.1,73.8,29.76,SSE,148,0.0,11.0,76,0.00,,---,0.00,399.00,VWS V14.01,2013-09-12 17:47:00,
2013-09-12 13:52:00,82.0,72.1,29.76,SSE,165,2.0,11.0,72,0.00,,---,0.00,357.00,VWS V14.01,2013-09-12 17:52:00,
2013-09-12 13:57:00,82.1,73.0,29.76,South,188,1.0,11.0,74,0.00,,---,0.00,443.00,VWS V14.01,2013-09-12 17:57:00,
2013-09-12 14:02:00,82.4,73.7,29.75,South,182,2.0,6.0,75,0.00,,---,0.00,545.00,VWS V14.01,2013-09-12 18:02:00,
2013-09-12 14:07:00,82.7,74.0,29.75,SE,138,3.0,8.0,75,0.00,,---,0.00,473.00,VWS V14.01,2013-09-12 18:07:00,
2013-09-12 14:12:00,82.9,73.8,29.75,SSE,148,1.0,9.0,74,0.00,,---,0.00,564.00,VWS V14.01,2013-09-12 18:12:00,
2013-09-12 14:17:00,83.0,72.2,29.74,SW,236,4.0,10.0,70,0.00,,---,0.00,462.00,VWS V14.01,2013-09-12 18:17:00,
2013-09-12 14:22:00,83.0,72.2,29.74,SSW,208,4.0,10.0,70,0.00,,---,0.00,570.00,VWS V14.01,2013-09-12 18:22:00,
2013-09-12 14:27:00,83.2,71.6,29.74,South,190,1.0,10.0,68,0.00,,---,0.00,693.00,VWS V14.01,2013-09-12 18:27:00,
2013-09-12 14:32:00,83.7,71.6,29.74,West,263,4.0,4.0,67,0.00,,---,0.00,686.00,VWS V14.01,2013-09-12 18:32:00,
2013-09-12 14:37:00,83.9,72.7,29.73,SSE,159,6.0,8.0,69,0.00,,---,0.00,640.00,VWS V14.01,2013-09-12 18:37:00,
2013-09-12 14:42:00,84.1,73.7,29.73,South,175,2.0,8.0,71,0.00,,---,0.00,425.00,VWS V14.01,2013-09-12 18:42:00,
2013-09-12 14:47:00,84.4,74.8,29.73,SSE,149,4.0,8.0,73,0.00,,---,0.00,673.00,VWS V14.01,2013-09-12 18:47:00,
2013-09-12 14:53:00,84.6,74.6,29.73,East,85,0.0,8.0,72,0.00,,---,0.00,383.00,VWS V14.01,2013-09-12 18:53:00,
2013-09-12 14:58:00,84.5,74.5,29.73,SSE,163,6.0,8.0,72,0.00,,---,0.00,295.00,VWS V14.01,2013-09-12 18:58:00,
2013-09-12 15:03:00,84.3,73.9,29.73,SSW,206,1.0,7.0,71,0.00,,---,0.00,265.00,VWS V14.01,2013-09-12 19:03:00,
2013-09-12 15:08:00,84.0,74.0,29.72,South,171,1.0,7.0,72,0.00,,---,0.00,202.00,VWS V14.01,2013-09-12 19:08:00,
2013-09-12 15:13:00,83.6,73.6,29.72,SSE,150,0.0,7.0,72,0.00,,---,0.00,202.00,VWS V14.01,2013-09-12 19:13:00,
2013-09-12 15:18:00,83.6,73.6,29.71,SE,133,5.0,7.0,72,0.00,,---,0.00,520.00,VWS V14.01,2013-09-12 19:18:00,
2013-09-12 15:23:00,84.0,74.4,29.71,South,177,0.0,7.0,73,0.00,,---,0.00,526.00,VWS V14.01,2013-09-12 19:23:00,
2013-09-12 15:28:00,84.2,74.2,29.70,SSE,155,3.0,7.0,72,0.00,,---,0.00,172.00,VWS V14.01,2013-09-12 19:28:00,
2013-09-12 15:33:00,84.1,73.7,29.70,SSE,161,0.0,6.0,71,0.00,,---,0.00,244.00,VWS V14.01,2013-09-12 19:33:00,
2013-09-12 15:38:00,84.0,74.4,29.69,SSE,150,5.0,8.0,73,0.00,,---,0.00,543.00,VWS V14.01,2013-09-12 19:38:00,
2013-09-12 15:43:00,84.1,74.1,29.69,South,173,3.0,8.0,72,0.00,,---,0.00,313.00,VWS V14.01,2013-09-12 19:43:00,
2013-09-12 15:48:00,84.1,74.5,29.69,SSE,152,0.0,8.0,73,0.00,,---,0.00,457.00,VWS V14.01,2013-09-12 19:48:00,
2013-09-12 15:53:00,84.1,74.5,29.69,East,96,0.0,8.0,73,0.00,,---,0.00,454.00,VWS V14.01,2013-09-12 19:53:00,
2013-09-12 15:58:00,84.2,74.6,29.69,SE,144,0.0,8.0,73,0.00,,---,0.00,455.00,VWS V14.01,2013-09-12 19:58:00,
2013-09-12 16:03:00,84.2,74.2,29.69,ENE,61,0.0,5.0,72,0.00,,---,0.00,229.00,VWS V14.01,2013-09-12 20:03:00,
2013-09-12 16:08:00,84.3,74.3,29.68,South,186,0.0,5.0,72,0.00,,---,0.00,485.00,VWS V14.01,2013-09-12 20:08:00,
2013-09-12 16:13:00,84.3,73.5,29.68,SSE,157,5.0,7.0,70,0.00,,---,0.00,241.00,VWS V14.01,2013-09-12 20:13:00,
2013-09-12 16:18:00,84.0,73.6,29.68,SE,129,2.0,7.0,71,0.00,,---,0.00,93.00,VWS V14.01,2013-09-12 20:18:00,
2013-09-12 16:23:00,83.3,73.8,29.67,SE,133,1.0,7.0,73,0.00,,---,0.00,79.00,VWS V14.01,2013-09-12 20:23:00,
2013-09-12 16:28:00,82.7,73.2,29.67,SSE,151,1.0,7.0,73,0.00,,---,0.00,91.00,VWS V14.01,2013-09-12 20:28:00,
2013-09-12 16:34:00,82.3,72.8,29.67,SE,146,5.0,6.0,73,0.00,,---,0.00,102.00,VWS V14.01,2013-09-12 20:34:00,
2013-09-12 16:39:00,82.1,72.6,29.67,SE,146,2.0,8.0,73,0.00,,---,0.00,109.00,VWS V14.01,2013-09-12 20:39:00,
2013-09-12 16:44:00,82.0,72.5,29.67,SE,134,4.0,8.0,73,0.00,,---,0.00,111.00,VWS V14.01,2013-09-12 20:44:00,
2013-09-12 16:49:00,81.8,72.7,29.66,SSE,161,3.0,8.0,74,0.00,,---,0.00,105.00,VWS V14.01,2013-09-12 20:49:00,
2013-09-12 16:54:00,81.6,72.9,29.66,SE,143,1.0,8.0,75,0.00,,---,0.00,93.00,VWS V14.01,2013-09-12 20:54:00,
2013-09-12 16:59:00,81.5,72.8,29.66,SSW,197,0.0,8.0,75,0.00,,---,0.00,63.00,VWS V14.01,2013-09-12 20:59:00,
2013-09-12 17:04:00,81.3,72.6,29.66,South,173,1.0,5.0,75,0.00,,---,0.00,49.00,VWS V14.01,2013-09-12 21:04:00,
2013-09-12 17:09:00,81.2,72.5,29.66,SSW,204,2.0,5.0,75,0.00,,---,0.00,39.00,VWS V14.01,2013-09-12 21:09:00,
2013-09-12 17:14:00,81.0,72.3,29.66,SSE,167,4.0,7.0,75,0.00,,---,0.00,28.00,VWS V14.01,2013-09-12 21:14:00,
2013-09-12 17:19:00,80.8,72.5,29.67,SSE,168,0.0,7.0,76,0.00,,---,0.00,19.00,VWS V14.01,2013-09-12 21:19:00,
2013-09-12 17:24:00,80.7,72.4,29.67,SSE,161,5.0,7.0,76,0.00,,---,0.00,14.00,VWS V14.01,2013-09-12 21:24:00,
2013-09-12 17:29:00,80.5,72.6,29.67,SE,130,5.0,9.0,77,0.00,,---,0.00,16.00,VWS V14.01,2013-09-12 21:29:00,
2013-09-12 17:34:00,80.3,72.4,29.68,SSE,153,0.0,5.0,77,0.00,,---,0.00,18.00,VWS V14.01,2013-09-12 21:34:00,
2013-09-12 17:39:00,80.1,72.2,29.68,SSW,193,0.0,7.0,77,0.00,,---,0.00,16.00,VWS V14.01,2013-09-12 21:39:00,
2013-09-12 17:44:00,79.9,72.4,29.68,SSW,198,0.0,7.0,78,0.00,,---,0.00,19.00,VWS V14.01,2013-09-12 21:44:00,
2013-09-12 17:49:00,79.6,72.5,29.68,SSE,163,0.0,10.0,79,0.00,,---,0.00,18.00,VWS V14.01,2013-09-12 21:49:00,
2013-09-12 17:54:00,79.2,72.5,29.68,SSW,202,0.0,10.0,80,0.00,,---,0.00,12.00,VWS V14.01,2013-09-12 21:54:00,
2013-09-12 18:00:00,78.7,72.4,29.68,South,188,0.0,10.0,81,0.01,,---,0.01,14.00,VWS V14.01,2013-09-12 22:00:00,
2013-09-12 18:05:00,77.9,72.3,29.68,SW,219,3.0,9.0,83,0.03,,---,0.03,12.00,VWS V14.01,2013-09-12 22:05:00,
2013-09-12 18:10:00,76.2,71.0,29.70,SSW,212,8.0,14.0,84,0.06,,---,0.06,0.00,VWS V14.01,2013-09-12 22:10:00,
2013-09-12 18:15:00,73.0,68.9,29.71,SW,221,7.0,18.0,87,0.17,,---,0.17,0.00,VWS V14.01,2013-09-12 22:15:00,
2013-09-12 18:20:00,70.7,67.0,29.70,SSW,211,4.0,19.0,88,0.26,,---,0.26,0.00,VWS V14.01,2013-09-12 22:20:00,
2013-09-12 18:25:00,69.6,66.5,29.70,SW,223,6.0,19.0,90,0.28,,---,0.28,0.00,VWS V14.01,2013-09-12 22:25:00,
2013-09-12 18:30:00,69.0,66.3,29.69,WSW,252,2.0,6.0,91,0.31,,---,0.31,5.00,VWS V14.01,2013-09-12 22:30:00,
2013-09-12 18:35:00,68.6,66.2,29.68,West,280,0.0,6.0,92,0.32,,---,0.32,7.00,VWS V14.01,2013-09-12 22:35:00,
2013-09-12 18:40:00,68.3,65.9,29.69,WSW,248,1.0,6.0,92,0.32,,---,0.32,7.00,VWS V14.01,2013-09-12 22:40:00,
2013-09-12 18:45:00,68.0,65.9,29.69,SSW,207,1.0,6.0,93,0.32,,---,0.32,5.00,VWS V14.01,2013-09-12 22:45:00,
2013-09-12 18:50:00,67.8,65.7,29.69,SSW,209,1.0,6.0,93,0.32,,---,0.32,0.00,VWS V14.01,2013-09-12 22:50:00,
2013-09-12 18:55:00,67.7,65.6,29.70,SW,219,0.0,6.0,93,0.32,,---,0.32,0.00,VWS V14.01,2013-09-12 22:55:00,
2013-09-12 19:00:00,67.7,65.6,29.70,SSW,213,0.0,0.0,93,0.31,,---,0.32,0.00,VWS V14.01,2013-09-12 23:00:00,
2013-09-12 19:05:00,67.6,65.8,29.69,SSW,213,0.0,1.0,94,0.31,,---,0.32,0.00,VWS V14.01,2013-09-12 23:05:00,
2013-09-12 19:11:00,67.6,65.8,29.69,SSW,213,0.0,1.0,94,0.32,,---,0.33,0.00,VWS V14.01,2013-09-12 23:11:00,
2013-09-12 19:16:00,67.4,65.6,29.68,SSW,213,0.0,1.0,94,0.32,,---,0.33,0.00,VWS V14.01,2013-09-12 23:16:00,
2013-09-12 19:21:00,67.3,65.5,29.67,SSW,213,0.0,1.0,94,0.33,,---,0.34,0.00,VWS V14.01,2013-09-12 23:21:00,
2013-09-12 19:26:00,67.2,65.4,29.66,SSW,213,0.0,1.0,94,0.33,,---,0.34,0.00,VWS V14.01,2013-09-12 23:26:00,
2013-09-12 19:31:00,67.2,65.4,29.66,SSW,213,0.0,0.0,94,0.03,,---,0.34,0.00,VWS V14.01,2013-09-12 23:31:00,
2013-09-12 19:36:00,67.2,65.4,29.66,SSW,213,0.0,0.0,94,0.03,,---,0.34,0.00,VWS V14.01,2013-09-12 23:36:00,
2013-09-12 19:41:00,67.2,65.7,29.65,SSW,213,0.0,0.0,95,0.03,,---,0.34,0.00,VWS V14.01,2013-09-12 23:41:00,
2013-09-12 19:46:00,67.2,65.7,29.66,SSW,213,0.0,0.0,95,0.03,,---,0.34,0.00,VWS V14.01,2013-09-12 23:46:00,
2013-09-12 19:51:00,67.2,65.7,29.65,SSW,213,0.0,1.0,95,0.03,,---,0.34,0.00,VWS V14.01,2013-09-12 23:51:00,
2013-09-12 19:56:00,67.3,65.8,29.66,SSW,213,0.0,1.0,95,0.03,,---,0.34,0.00,VWS V14.01,2013-09-12 23:56:00,
2013-09-12 20:01:00,67.3,65.8,29.67,SSW,213,0.0,0.0,95,0.02,,---,0.34,0.00,VWS V14.01,2013-09-13 00:01:00,
2013-09-12 20:06:00,67.3,65.8,29.67,SSW,213,0.0,0.0,95,0.02,,---,0.34,0.00,VWS V14.01,2013-09-13 00:06:00,
2013-09-12 20:12:00,67.4,65.9,29.68,South,178,1.0,1.0,95,0.02,,---,0.34,0.00,VWS V14.01,2013-09-13 00:12:00,
2013-09-12 20:17:00,67.5,66.0,29.67,SSE,165,0.0,2.0,95,0.02,,---,0.34,0.00,VWS V14.01,2013-09-13 00:17:00,
2013-09-12 20:22:00,67.4,65.9,29.67,SSE,165,0.0,2.0,95,0.02,,---,0.34,0.00,VWS V14.01,2013-09-13 00:22:00,
2013-09-12 20:27:00,67.3,65.8,29.68,SSE,165,0.0,2.0,95,0.02,,---,0.34,0.00,VWS V14.01,2013-09-13 00:27:00,
2013-09-12 20:32:00,67.2,65.7,29.68,SSW,213,2.0,2.0,95,0.00,,---,0.34,0.00,VWS V14.01,2013-09-13 00:32:00,
2013-09-12 20:37:00,67.0,65.5,29.68,SSW,192,0.0,3.0,95,0.00,,---,0.34,0.00,VWS V14.01,2013-09-13 00:37:00,
2013-09-12 20:42:00,67.0,65.5,29.68,SW,229,0.0,3.0,95,0.00,,---,0.34,0.00,VWS V14.01,2013-09-13 00:42:00,
2013-09-12 20:47:00,66.8,65.3,29.68,SW,220,2.0,4.0,95,0.00,,---,0.34,0.00,VWS V14.01,2013-09-13 00:47:00,
2013-09-12 20:52:00,66.8,65.3,29.68,SSW,213,1.0,4.0,95,0.00,,---,0.34,0.00,VWS V14.01,2013-09-13 00:52:00,
2013-09-12 20:57:00,66.7,65.2,29.68,SE,138,0.0,5.0,95,0.00,,---,0.34,0.00,VWS V14.01,2013-09-13 00:57:00,
2013-09-12 21:02:00,66.7,65.2,29.69,SSE,161,1.0,5.0,95,0.00,,---,0.34,0.00,VWS V14.01,2013-09-13 01:02:00,
2013-09-12 21:07:00,66.7,65.2,29.69,SSE,159,0.0,5.0,95,0.00,,---,0.34,0.00,VWS V14.01,2013-09-13 01:07:00,
2013-09-12 21:13:00,66.7,65.2,29.69,SSE,148,0.0,5.0,95,0.00,,---,0.34,0.00,VWS V14.01,2013-09-13 01:13:00,
2013-09-12 21:18:00,66.7,65.2,29.69,SSE,164,1.0,5.0,95,0.00,,---,0.34,0.00,VWS V14.01,2013-09-13 01:18:00,
2013-09-12 21:23:00,66.7,65.2,29.69,SSE,164,0.0,5.0,95,0.00,,---,0.34,0.00,VWS V14.01,2013-09-13 01:23:00,
2013-09-12 21:28:00,66.7,65.2,29.69,SSE,164,1.0,5.0,95,0.00,,---,0.34,0.00,VWS V14.01,2013-09-13 01:28:00,
2013-09-12 21:33:00,66.6,65.1,29.68,SSE,164,0.0,1.0,95,0.00,,---,0.34,0.00,VWS V14.01,2013-09-13 01:33:00,
2013-09-12 21:38:00,66.6,65.4,29.68,SSE,164,0.0,1.0,96,0.00,,---,0.34,0.00,VWS V14.01,2013-09-13 01:38:00,
2013-09-12 21:43:00,66.6,65.4,29.68,SSE,164,0.0,1.0,96,0.00,,---,0.34,0.00,VWS V14.01,2013-09-13 01:43:00,
2013-09-12 21:48:00,66.6,65.4,29.68,SSE,164,0.0,1.0,96,0.00,,---,0.34,0.00,VWS V14.01,2013-09-13 01:48:00,
2013-09-12 21:53:00,66.6,65.4,29.68,SSE,165,1.0,1.0,96,0.00,,---,0.34,0.00,VWS V14.01,2013-09-13 01:53:00,
2013-09-12 21:58:00,66.6,65.4,29.68,SSE,165,0.0,1.0,96,0.00,,---,0.34,0.00,VWS V14.01,2013-09-13 01:58:00,
2013-09-12 22:03:00,66.5,65.3,29.68,SSE,165,0.0,0.0,96,0.00,,---,0.34,0.00,VWS V14.01,2013-09-13 02:03:00,
2013-09-12 22:08:00,66.6,65.4,29.68,SSE,165,0.0,0.0,96,0.00,,---,0.34,0.00,VWS V14.01,2013-09-13 02:08:00,
2013-09-12 22:13:00,66.5,65.3,29.68,SSE,165,0.0,0.0,96,0.00,,---,0.34,0.00,VWS V14.01,2013-09-13 02:13:00,
2013-09-12 22:18:00,66.5,65.3,29.68,SSE,165,0.0,1.0,96,0.00,,---,0.34,0.00,VWS V14.01,2013-09-13 02:18:00,
2013-09-12 22:24:00,66.5,65.3,29.68,SSE,165,0.0,1.0,96,0.00,,---,0.34,0.00,VWS V14.01,2013-09-13 02:24:00,
2013-09-12 22:29:00,66.5,65.3,29.67,SSE,165,0.0,1.0,96,0.00,,---,0.34,0.00,VWS V14.01,2013-09-13 02:29:00,
2013-09-12 22:34:00,66.5,65.3,29.68,SSE,165,0.0,0.0,96,0.00,,---,0.34,0.00,VWS V14.01,2013-09-13 02:34:00,
2013-09-12 22:39:00,66.5,65.3,29.67,SSE,165,0.0,0.0,96,0.00,,---,0.34,0.00,VWS V14.01,2013-09-13 02:39:00,
2013-09-12 22:44:00,66.5,65.3,29.67,SSE,165,0.0,0.0,96,0.00,,---,0.34,0.00,VWS V14.01,2013-09-13 02:44:00,
2013-09-12 22:49:00,66.5,65.3,29.68,SSE,165,0.0,0.0,96,0.00,,---,0.34,0.00,VWS V14.01,2013-09-13 02:49:00,
2013-09-12 22:54:00,66.5,65.3,29.68,SSE,165,0.0,1.0,96,0.00,,---,0.34,0.00,VWS V14.01,2013-09-13 02:54:00,
2013-09-12 22:59:00,66.6,65.4,29.68,SSE,165,0.0,1.0,96,0.00,,---,0.34,0.00,VWS V14.01,2013-09-13 02:59:00,
2013-09-12 23:04:00,66.7,65.5,29.68,SSE,165,0.0,0.0,96,0.00,,---,0.34,0.00,VWS V14.01,2013-09-13 03:04:00,
2013-09-12 23:09:00,66.7,65.5,29.67,SSE,165,0.0,0.0,96,0.00,,---,0.34,0.00,VWS V14.01,2013-09-13 03:09:00,
2013-09-12 23:14:00,66.8,65.6,29.67,SSE,165,0.0,1.0,96,0.00,,---,0.34,0.00,VWS V14.01,2013-09-13 03:14:00,
2013-09-12 23:19:00,66.8,65.6,29.67,SSE,165,0.0,1.0,96,0.00,,---,0.34,0.00,VWS V14.01,2013-09-13 03:19:00,
2013-09-12 23:24:00,66.9,65.7,29.67,South,180,0.0,1.0,96,0.00,,---,0.34,0.00,VWS V14.01,2013-09-13 03:24:00,
2013-09-12 23:30:00,67.0,65.8,29.67,South,180,0.0,1.0,96,0.00,,---,0.34,0.00,VWS V14.01,2013-09-13 03:30:00,
2013-09-12 23:35:00,67.0,65.8,29.67,South,180,0.0,3.0,96,0.00,,---,0.34,0.00,VWS V14.01,2013-09-13 03:35:00,
2013-09-12 23:40:00,67.0,66.1,29.67,SSE,164,0.0,3.0,97,0.00,,---,0.34,0.00,VWS V14.01,2013-09-13 03:40:00,
2013-09-12 23:45:00,67.0,65.8,29.67,SW,216,0.0,5.0,96,0.00,,---,0.34,0.00,VWS V14.01,2013-09-13 03:45:00,
2013-09-12 23:50:00,66.9,65.7,29.67,SSW,213,0.0,5.0,96,0.00,,---,0.34,0.00,VWS V14.01,2013-09-13 03:50:00,
2013-09-12 23:55:00,66.8,65.6,29.66,SSW,211,0.0,5.0,96,0.00,,---,0.34,0.00,VWS V14.01,2013-09-13 03:55:00,